owner,sensor,date,latitude,longitude,vertical_datum,sea_water_temperature,qcFlag 
COMPS,ioos:station:USF.COMPS:NFB:1,2008-11-10T14:36:00Z,25.0840,-81.0960,-1.0,22.34,2 
COMPS,ioos:station:USF.COMPS:NFB:1,2008-11-10T15:00:00Z,25.0840,-81.0960,-1.0,22.33,2 
COMPS,ioos:station:USF.COMPS:NFB:1,2008-11-10T15:12:00Z,25.0840,-81.0960,-1.0,22.35,2 
COMPS,ioos:station:USF.COMPS:NFB:1,2008-11-10T15:24:00Z,25.0840,-81.0960,-1.0,22.36,2 
COMPS,ioos:station:USF.COMPS:NFB:1,2008-11-10T15:30:00Z,25.0840,-81.0960,-1.0,22.36,2 
COMPS,ioos:station:USF.COMPS:NFB:1,2008-11-10T15:36:00Z,25.0840,-81.0960,-1.0,22.36,2 
COMPS,ioos:station:USF.COMPS:NFB:1,2008-11-10T15:42:00Z,25.0840,-81.0960,-1.0,22.36,2 
COMPS,ioos:station:USF.COMPS:NFB:1,2008-11-10T15:48:00Z,25.0840,-81.0960,-1.0,22.36,2 
COMPS,ioos:station:USF.COMPS:NFB:1,2008-11-10T15:54:00Z,25.0840,-81.0960,-1.0,22.37,2 
COMPS,ioos:station:USF.COMPS:NFB:1,2008-11-10T16:00:00Z,25.0840,-81.0960,-1.0,22.37,2 
COMPS,ioos:station:USF.COMPS:NFB:1,2008-11-10T16:06:00Z,25.0840,-81.0960,-1.0,22.38,2 
COMPS,ioos:station:USF.COMPS:NFB:1,2008-11-10T16:12:00Z,25.0840,-81.0960,-1.0,22.39,2 
COMPS,ioos:station:USF.COMPS:NFB:1,2008-11-10T16:18:00Z,25.0840,-81.0960,-1.0,22.39,2 
COMPS,ioos:station:USF.COMPS:NFB:1,2008-11-10T16:24:00Z,25.0840,-81.0960,-1.0,22.4,2 
COMPS,ioos:station:USF.COMPS:NFB:1,2008-11-10T16:30:00Z,25.0840,-81.0960,-1.0,22.41,2 
COMPS,ioos:station:USF.COMPS:NFB:1,2008-11-10T16:36:00Z,25.0840,-81.0960,-1.0,22.42,2 
COMPS,ioos:station:USF.COMPS:NFB:1,2008-11-10T16:42:00Z,25.0840,-81.0960,-1.0,22.44,2 
COMPS,ioos:station:USF.COMPS:NFB:1,2008-11-10T16:48:00Z,25.0840,-81.0960,-1.0,22.44,2 
COMPS,ioos:station:USF.COMPS:NFB:1,2008-11-10T16:54:00Z,25.0840,-81.0960,-1.0,22.44,2 
COMPS,ioos:station:USF.COMPS:NFB:1,2008-11-10T17:00:00Z,25.0840,-81.0960,-1.0,22.45,2 
COMPS,ioos:station:USF.COMPS:NFB:1,2008-11-10T17:06:00Z,25.0840,-81.0960,-1.0,22.46,2 
COMPS,ioos:station:USF.COMPS:NFB:1,2008-11-10T17:12:00Z,25.0840,-81.0960,-1.0,22.47,2 
COMPS,ioos:station:USF.COMPS:NFB:1,2008-11-10T17:18:00Z,25.0840,-81.0960,-1.0,22.48,2 
COMPS,ioos:station:USF.COMPS:NFB:1,2008-11-10T17:24:00Z,25.0840,-81.0960,-1.0,22.49,2 
COMPS,ioos:station:USF.COMPS:NFB:1,2008-11-10T17:30:00Z,25.0840,-81.0960,-1.0,22.5,2 
COMPS,ioos:station:USF.COMPS:NFB:1,2008-11-10T17:36:00Z,25.0840,-81.0960,-1.0,22.51,2 
COMPS,ioos:station:USF.COMPS:NFB:1,2008-11-10T17:42:00Z,25.0840,-81.0960,-1.0,22.52,2 
COMPS,ioos:station:USF.COMPS:NFB:1,2008-11-10T17:48:00Z,25.0840,-81.0960,-1.0,22.52,2 
COMPS,ioos:station:USF.COMPS:NFB:1,2008-11-10T17:54:00Z,25.0840,-81.0960,-1.0,22.54,2 
COMPS,ioos:station:USF.COMPS:NFB:1,2008-11-10T18:00:00Z,25.0840,-81.0960,-1.0,22.55,2 
COMPS,ioos:station:USF.COMPS:NFB:1,2008-11-10T18:06:00Z,25.0840,-81.0960,-1.0,22.56,2 
COMPS,ioos:station:USF.COMPS:NFB:1,2008-11-10T18:12:00Z,25.0840,-81.0960,-1.0,22.58,2 
COMPS,ioos:station:USF.COMPS:NFB:1,2008-11-10T18:18:00Z,25.0840,-81.0960,-1.0,22.59,2 
COMPS,ioos:station:USF.COMPS:NFB:1,2008-11-10T18:24:00Z,25.0840,-81.0960,-1.0,22.59,2 
COMPS,ioos:station:USF.COMPS:NFB:1,2008-11-10T18:30:00Z,25.0840,-81.0960,-1.0,22.58,2 
COMPS,ioos:station:USF.COMPS:NFB:1,2008-11-10T18:36:00Z,25.0840,-81.0960,-1.0,22.61,2 
COMPS,ioos:station:USF.COMPS:NFB:1,2008-11-10T18:42:00Z,25.0840,-81.0960,-1.0,22.64,2 
COMPS,ioos:station:USF.COMPS:NFB:1,2008-11-10T18:48:00Z,25.0840,-81.0960,-1.0,22.63,2 
COMPS,ioos:station:USF.COMPS:NFB:1,2008-11-10T18:54:00Z,25.0840,-81.0960,-1.0,22.67,2 
COMPS,ioos:station:USF.COMPS:NFB:1,2008-11-10T19:00:00Z,25.0840,-81.0960,-1.0,22.68,2 
COMPS,ioos:station:USF.COMPS:NFB:1,2008-11-10T19:06:00Z,25.0840,-81.0960,-1.0,22.7,2 
COMPS,ioos:station:USF.COMPS:NFB:1,2008-11-10T19:12:00Z,25.0840,-81.0960,-1.0,22.7,2 
COMPS,ioos:station:USF.COMPS:NFB:1,2008-11-10T19:18:00Z,25.0840,-81.0960,-1.0,22.71,2 
COMPS,ioos:station:USF.COMPS:NFB:1,2008-11-10T19:24:00Z,25.0840,-81.0960,-1.0,22.72,2 
COMPS,ioos:station:USF.COMPS:NFB:1,2008-11-10T19:30:00Z,25.0840,-81.0960,-1.0,22.73,2 
COMPS,ioos:station:USF.COMPS:NFB:1,2008-11-10T19:36:00Z,25.0840,-81.0960,-1.0,22.74,2 
COMPS,ioos:station:USF.COMPS:NFB:1,2008-11-10T19:42:00Z,25.0840,-81.0960,-1.0,22.76,2 
COMPS,ioos:station:USF.COMPS:NFB:1,2008-11-10T19:48:00Z,25.0840,-81.0960,-1.0,22.77,2 
COMPS,ioos:station:USF.COMPS:NFB:1,2008-11-10T19:54:00Z,25.0840,-81.0960,-1.0,22.79,2 
COMPS,ioos:station:USF.COMPS:NFB:1,2008-11-10T20:00:00Z,25.0840,-81.0960,-1.0,22.79,2 
COMPS,ioos:station:USF.COMPS:NFB:1,2008-11-10T20:06:00Z,25.0840,-81.0960,-1.0,22.8,2 
COMPS,ioos:station:USF.COMPS:NFB:1,2008-11-10T20:12:00Z,25.0840,-81.0960,-1.0,22.81,2 
COMPS,ioos:station:USF.COMPS:NFB:1,2008-11-10T20:18:00Z,25.0840,-81.0960,-1.0,22.82,2 
COMPS,ioos:station:USF.COMPS:NFB:1,2008-11-10T20:24:00Z,25.0840,-81.0960,-1.0,22.83,2 
COMPS,ioos:station:USF.COMPS:NFB:1,2008-11-10T20:30:00Z,25.0840,-81.0960,-1.0,22.84,2 
COMPS,ioos:station:USF.COMPS:NFB:1,2008-11-10T20:36:00Z,25.0840,-81.0960,-1.0,22.84,2 
COMPS,ioos:station:USF.COMPS:NFB:1,2008-11-10T20:42:00Z,25.0840,-81.0960,-1.0,22.85,2 
COMPS,ioos:station:USF.COMPS:NFB:1,2008-11-10T20:48:00Z,25.0840,-81.0960,-1.0,22.86,2 
COMPS,ioos:station:USF.COMPS:NFB:1,2008-11-10T20:54:00Z,25.0840,-81.0960,-1.0,22.86,2 
COMPS,ioos:station:USF.COMPS:NFB:1,2008-11-10T21:00:00Z,25.0840,-81.0960,-1.0,22.87,2 
COMPS,ioos:station:USF.COMPS:NFB:1,2008-11-10T21:06:00Z,25.0840,-81.0960,-1.0,22.88,2 
COMPS,ioos:station:USF.COMPS:NFB:1,2008-11-10T21:12:00Z,25.0840,-81.0960,-1.0,22.88,2 
COMPS,ioos:station:USF.COMPS:NFB:1,2008-11-10T21:18:00Z,25.0840,-81.0960,-1.0,22.89,2 
COMPS,ioos:station:USF.COMPS:NFB:1,2008-11-10T21:24:00Z,25.0840,-81.0960,-1.0,22.89,2 
COMPS,ioos:station:USF.COMPS:NFB:1,2008-11-10T21:30:00Z,25.0840,-81.0960,-1.0,22.9,2 
COMPS,ioos:station:USF.COMPS:NFB:1,2008-11-10T21:36:00Z,25.0840,-81.0960,-1.0,22.91,2 
COMPS,ioos:station:USF.COMPS:NFB:1,2008-11-10T21:42:00Z,25.0840,-81.0960,-1.0,22.92,2 
COMPS,ioos:station:USF.COMPS:NFB:1,2008-11-10T21:48:00Z,25.0840,-81.0960,-1.0,22.93,2 
COMPS,ioos:station:USF.COMPS:NFB:1,2008-11-10T21:54:00Z,25.0840,-81.0960,-1.0,22.95,2 
COMPS,ioos:station:USF.COMPS:NFB:1,2008-11-10T22:00:00Z,25.0840,-81.0960,-1.0,22.95,2 
COMPS,ioos:station:USF.COMPS:NFB:1,2008-11-10T22:06:00Z,25.0840,-81.0960,-1.0,22.96,2 
COMPS,ioos:station:USF.COMPS:NFB:1,2008-11-10T22:12:00Z,25.0840,-81.0960,-1.0,22.97,2 
COMPS,ioos:station:USF.COMPS:NFB:1,2008-11-10T22:18:00Z,25.0840,-81.0960,-1.0,22.97,2 
COMPS,ioos:station:USF.COMPS:NFB:1,2008-11-10T22:24:00Z,25.0840,-81.0960,-1.0,22.98,2 
COMPS,ioos:station:USF.COMPS:NFB:1,2008-11-10T22:30:00Z,25.0840,-81.0960,-1.0,22.99,2 
COMPS,ioos:station:USF.COMPS:NFB:1,2008-11-10T22:36:00Z,25.0840,-81.0960,-1.0,22.99,2 
COMPS,ioos:station:USF.COMPS:NFB:1,2008-11-10T22:42:00Z,25.0840,-81.0960,-1.0,23.0,2 
COMPS,ioos:station:USF.COMPS:NFB:1,2008-11-10T22:48:00Z,25.0840,-81.0960,-1.0,23.01,2 
COMPS,ioos:station:USF.COMPS:NFB:1,2008-11-10T22:54:00Z,25.0840,-81.0960,-1.0,23.02,2 
COMPS,ioos:station:USF.COMPS:NFB:1,2008-11-10T23:00:00Z,25.0840,-81.0960,-1.0,23.0,2 
COMPS,ioos:station:USF.COMPS:NFB:1,2008-11-10T23:06:00Z,25.0840,-81.0960,-1.0,23.01,2 
COMPS,ioos:station:USF.COMPS:NFB:1,2008-11-10T23:12:00Z,25.0840,-81.0960,-1.0,23.02,2 
COMPS,ioos:station:USF.COMPS:NFB:1,2008-11-10T23:18:00Z,25.0840,-81.0960,-1.0,23.02,2 
COMPS,ioos:station:USF.COMPS:NFB:1,2008-11-10T23:24:00Z,25.0840,-81.0960,-1.0,23.01,2 
COMPS,ioos:station:USF.COMPS:NFB:1,2008-11-10T23:30:00Z,25.0840,-81.0960,-1.0,23.01,2 
COMPS,ioos:station:USF.COMPS:NFB:1,2008-11-10T23:36:00Z,25.0840,-81.0960,-1.0,23.02,2 
COMPS,ioos:station:USF.COMPS:NFB:1,2008-11-10T23:42:00Z,25.0840,-81.0960,-1.0,23.02,2 
COMPS,ioos:station:USF.COMPS:NFB:1,2008-11-10T23:48:00Z,25.0840,-81.0960,-1.0,23.01,2 
COMPS,ioos:station:USF.COMPS:NFB:1,2008-11-10T23:54:00Z,25.0840,-81.0960,-1.0,23.0,2 
COMPS,ioos:station:USF.COMPS:NFB:1,2008-11-11T00:00:00Z,25.0840,-81.0960,-1.0,23.04,2 
COMPS,ioos:station:USF.COMPS:NFB:1,2008-11-11T00:06:00Z,25.0840,-81.0960,-1.0,23.06,2 
COMPS,ioos:station:USF.COMPS:NFB:1,2008-11-11T00:12:00Z,25.0840,-81.0960,-1.0,23.07,2 
COMPS,ioos:station:USF.COMPS:NFB:1,2008-11-11T00:18:00Z,25.0840,-81.0960,-1.0,23.1,2 
COMPS,ioos:station:USF.COMPS:NFB:1,2008-11-11T00:24:00Z,25.0840,-81.0960,-1.0,23.09,2 
COMPS,ioos:station:USF.COMPS:NFB:1,2008-11-11T00:30:00Z,25.0840,-81.0960,-1.0,23.08,2 
COMPS,ioos:station:USF.COMPS:NFB:1,2008-11-11T00:36:00Z,25.0840,-81.0960,-1.0,23.08,2 
COMPS,ioos:station:USF.COMPS:NFB:1,2008-11-11T00:42:00Z,25.0840,-81.0960,-1.0,23.07,2 
COMPS,ioos:station:USF.COMPS:NFB:1,2008-11-11T00:48:00Z,25.0840,-81.0960,-1.0,23.05,2 
COMPS,ioos:station:USF.COMPS:NFB:1,2008-11-11T00:54:00Z,25.0840,-81.0960,-1.0,23.04,2 
COMPS,ioos:station:USF.COMPS:NFB:1,2008-11-11T01:00:00Z,25.0840,-81.0960,-1.0,23.02,2 
COMPS,ioos:station:USF.COMPS:NFB:1,2008-11-11T01:06:00Z,25.0840,-81.0960,-1.0,23.0,2 
COMPS,ioos:station:USF.COMPS:NFB:1,2008-11-11T01:12:00Z,25.0840,-81.0960,-1.0,22.97,2 
COMPS,ioos:station:USF.COMPS:NFB:1,2008-11-11T01:18:00Z,25.0840,-81.0960,-1.0,22.96,2 
COMPS,ioos:station:USF.COMPS:NFB:1,2008-11-11T01:24:00Z,25.0840,-81.0960,-1.0,22.93,2 
COMPS,ioos:station:USF.COMPS:NFB:1,2008-11-11T01:30:00Z,25.0840,-81.0960,-1.0,22.92,2 
COMPS,ioos:station:USF.COMPS:NFB:1,2008-11-11T01:36:00Z,25.0840,-81.0960,-1.0,22.9,2 
COMPS,ioos:station:USF.COMPS:NFB:1,2008-11-11T01:42:00Z,25.0840,-81.0960,-1.0,22.89,2 
COMPS,ioos:station:USF.COMPS:NFB:1,2008-11-11T01:48:00Z,25.0840,-81.0960,-1.0,22.9,2 
COMPS,ioos:station:USF.COMPS:NFB:1,2008-11-11T01:54:00Z,25.0840,-81.0960,-1.0,22.9,2 
COMPS,ioos:station:USF.COMPS:NFB:1,2008-11-11T02:00:00Z,25.0840,-81.0960,-1.0,22.87,2 
COMPS,ioos:station:USF.COMPS:NFB:1,2008-11-11T02:06:00Z,25.0840,-81.0960,-1.0,22.87,2 
COMPS,ioos:station:USF.COMPS:NFB:1,2008-11-11T02:12:00Z,25.0840,-81.0960,-1.0,22.82,2 
COMPS,ioos:station:USF.COMPS:NFB:1,2008-11-11T02:18:00Z,25.0840,-81.0960,-1.0,22.82,2 
COMPS,ioos:station:USF.COMPS:NFB:1,2008-11-11T02:24:00Z,25.0840,-81.0960,-1.0,22.8,2 
COMPS,ioos:station:USF.COMPS:NFB:1,2008-11-11T02:30:00Z,25.0840,-81.0960,-1.0,22.79,2 
COMPS,ioos:station:USF.COMPS:NFB:1,2008-11-11T02:36:00Z,25.0840,-81.0960,-1.0,22.79,2 
COMPS,ioos:station:USF.COMPS:NFB:1,2008-11-11T02:42:00Z,25.0840,-81.0960,-1.0,22.78,2 
COMPS,ioos:station:USF.COMPS:NFB:1,2008-11-11T02:48:00Z,25.0840,-81.0960,-1.0,22.74,2 
COMPS,ioos:station:USF.COMPS:NFB:1,2008-11-11T02:54:00Z,25.0840,-81.0960,-1.0,22.72,2 
COMPS,ioos:station:USF.COMPS:NFB:1,2008-11-11T03:00:00Z,25.0840,-81.0960,-1.0,22.71,2 
COMPS,ioos:station:USF.COMPS:NFB:1,2008-11-11T03:06:00Z,25.0840,-81.0960,-1.0,22.7,2 
COMPS,ioos:station:USF.COMPS:NFB:1,2008-11-11T03:12:00Z,25.0840,-81.0960,-1.0,22.69,2 
COMPS,ioos:station:USF.COMPS:NFB:1,2008-11-11T03:18:00Z,25.0840,-81.0960,-1.0,22.67,2 
COMPS,ioos:station:USF.COMPS:NFB:1,2008-11-11T03:24:00Z,25.0840,-81.0960,-1.0,22.66,2 
COMPS,ioos:station:USF.COMPS:NFB:1,2008-11-11T03:30:00Z,25.0840,-81.0960,-1.0,22.65,2 
COMPS,ioos:station:USF.COMPS:NFB:1,2008-11-11T03:36:00Z,25.0840,-81.0960,-1.0,22.64,2 
COMPS,ioos:station:USF.COMPS:NFB:1,2008-11-11T03:42:00Z,25.0840,-81.0960,-1.0,22.63,2 
COMPS,ioos:station:USF.COMPS:NFB:1,2008-11-11T03:48:00Z,25.0840,-81.0960,-1.0,22.62,2 
COMPS,ioos:station:USF.COMPS:NFB:1,2008-11-11T03:54:00Z,25.0840,-81.0960,-1.0,22.61,2 
COMPS,ioos:station:USF.COMPS:NFB:1,2008-11-11T04:00:00Z,25.0840,-81.0960,-1.0,22.61,2 
COMPS,ioos:station:USF.COMPS:NFB:1,2008-11-11T04:06:00Z,25.0840,-81.0960,-1.0,22.6,2 
COMPS,ioos:station:USF.COMPS:NFB:1,2008-11-11T04:12:00Z,25.0840,-81.0960,-1.0,22.59,2 
COMPS,ioos:station:USF.COMPS:NFB:1,2008-11-11T04:18:00Z,25.0840,-81.0960,-1.0,22.59,2 
COMPS,ioos:station:USF.COMPS:NFB:1,2008-11-11T04:24:00Z,25.0840,-81.0960,-1.0,22.58,2 
COMPS,ioos:station:USF.COMPS:NFB:1,2008-11-11T04:30:00Z,25.0840,-81.0960,-1.0,22.57,2 
COMPS,ioos:station:USF.COMPS:NFB:1,2008-11-11T04:36:00Z,25.0840,-81.0960,-1.0,22.58,2 
COMPS,ioos:station:USF.COMPS:NFB:1,2008-11-11T04:42:00Z,25.0840,-81.0960,-1.0,22.57,2 
COMPS,ioos:station:USF.COMPS:NFB:1,2008-11-11T04:48:00Z,25.0840,-81.0960,-1.0,22.57,2 
COMPS,ioos:station:USF.COMPS:NFB:1,2008-11-11T04:54:00Z,25.0840,-81.0960,-1.0,22.56,2 
COMPS,ioos:station:USF.COMPS:NFB:1,2008-11-11T05:00:00Z,25.0840,-81.0960,-1.0,22.56,2 
COMPS,ioos:station:USF.COMPS:NFB:1,2008-11-11T05:06:00Z,25.0840,-81.0960,-1.0,22.56,2 
COMPS,ioos:station:USF.COMPS:NFB:1,2008-11-11T05:12:00Z,25.0840,-81.0960,-1.0,22.56,2 
COMPS,ioos:station:USF.COMPS:NFB:1,2008-11-11T05:18:00Z,25.0840,-81.0960,-1.0,22.55,2 
COMPS,ioos:station:USF.COMPS:NFB:1,2008-11-11T05:24:00Z,25.0840,-81.0960,-1.0,22.55,2 
COMPS,ioos:station:USF.COMPS:NFB:1,2008-11-11T05:30:00Z,25.0840,-81.0960,-1.0,22.56,2 
COMPS,ioos:station:USF.COMPS:NFB:1,2008-11-11T05:36:00Z,25.0840,-81.0960,-1.0,22.55,2 
COMPS,ioos:station:USF.COMPS:NFB:1,2008-11-11T05:42:00Z,25.0840,-81.0960,-1.0,22.55,2 
COMPS,ioos:station:USF.COMPS:NFB:1,2008-11-11T05:48:00Z,25.0840,-81.0960,-1.0,22.55,2 
COMPS,ioos:station:USF.COMPS:NFB:1,2008-11-11T05:54:00Z,25.0840,-81.0960,-1.0,22.54,2 
COMPS,ioos:station:USF.COMPS:NFB:1,2008-11-11T06:00:00Z,25.0840,-81.0960,-1.0,22.54,2 
COMPS,ioos:station:USF.COMPS:NFB:1,2008-11-11T06:06:00Z,25.0840,-81.0960,-1.0,22.53,2 
COMPS,ioos:station:USF.COMPS:NFB:1,2008-11-11T06:12:00Z,25.0840,-81.0960,-1.0,22.54,2 
COMPS,ioos:station:USF.COMPS:NFB:1,2008-11-11T06:18:00Z,25.0840,-81.0960,-1.0,22.53,2 
COMPS,ioos:station:USF.COMPS:NFB:1,2008-11-11T06:24:00Z,25.0840,-81.0960,-1.0,22.52,2 
COMPS,ioos:station:USF.COMPS:NFB:1,2008-11-11T06:30:00Z,25.0840,-81.0960,-1.0,22.52,2 
COMPS,ioos:station:USF.COMPS:NFB:1,2008-11-11T06:36:00Z,25.0840,-81.0960,-1.0,22.51,2 
COMPS,ioos:station:USF.COMPS:NFB:1,2008-11-11T06:42:00Z,25.0840,-81.0960,-1.0,22.51,2 
COMPS,ioos:station:USF.COMPS:NFB:1,2008-11-11T06:48:00Z,25.0840,-81.0960,-1.0,22.51,2 
COMPS,ioos:station:USF.COMPS:NFB:1,2008-11-11T06:54:00Z,25.0840,-81.0960,-1.0,22.5,2 
COMPS,ioos:station:USF.COMPS:NFB:1,2008-11-11T07:00:00Z,25.0840,-81.0960,-1.0,22.5,2 
COMPS,ioos:station:USF.COMPS:NFB:1,2008-11-11T07:06:00Z,25.0840,-81.0960,-1.0,22.5,2 
COMPS,ioos:station:USF.COMPS:NFB:1,2008-11-11T07:12:00Z,25.0840,-81.0960,-1.0,22.49,2 
COMPS,ioos:station:USF.COMPS:NFB:1,2008-11-11T07:18:00Z,25.0840,-81.0960,-1.0,22.49,2 
COMPS,ioos:station:USF.COMPS:NFB:1,2008-11-11T07:24:00Z,25.0840,-81.0960,-1.0,22.49,2 
COMPS,ioos:station:USF.COMPS:NFB:1,2008-11-11T07:30:00Z,25.0840,-81.0960,-1.0,22.48,2 
COMPS,ioos:station:USF.COMPS:NFB:1,2008-11-11T07:36:00Z,25.0840,-81.0960,-1.0,22.48,2 
COMPS,ioos:station:USF.COMPS:NFB:1,2008-11-11T07:42:00Z,25.0840,-81.0960,-1.0,22.47,2 
COMPS,ioos:station:USF.COMPS:NFB:1,2008-11-11T07:48:00Z,25.0840,-81.0960,-1.0,22.47,2 
COMPS,ioos:station:USF.COMPS:NFB:1,2008-11-11T07:54:00Z,25.0840,-81.0960,-1.0,22.47,2 
COMPS,ioos:station:USF.COMPS:NFB:1,2008-11-11T08:00:00Z,25.0840,-81.0960,-1.0,22.47,2 
COMPS,ioos:station:USF.COMPS:NFB:1,2008-11-11T08:06:00Z,25.0840,-81.0960,-1.0,22.46,2 
COMPS,ioos:station:USF.COMPS:NFB:1,2008-11-11T08:12:00Z,25.0840,-81.0960,-1.0,22.46,2 
COMPS,ioos:station:USF.COMPS:NFB:1,2008-11-11T08:18:00Z,25.0840,-81.0960,-1.0,22.46,2 
COMPS,ioos:station:USF.COMPS:NFB:1,2008-11-11T08:24:00Z,25.0840,-81.0960,-1.0,22.46,2 
COMPS,ioos:station:USF.COMPS:NFB:1,2008-11-11T08:30:00Z,25.0840,-81.0960,-1.0,22.47,2 
COMPS,ioos:station:USF.COMPS:NFB:1,2008-11-11T08:36:00Z,25.0840,-81.0960,-1.0,22.46,2 
COMPS,ioos:station:USF.COMPS:NFB:1,2008-11-11T08:42:00Z,25.0840,-81.0960,-1.0,22.47,2 
COMPS,ioos:station:USF.COMPS:NFB:1,2008-11-11T08:48:00Z,25.0840,-81.0960,-1.0,22.46,2 
COMPS,ioos:station:USF.COMPS:NFB:1,2008-11-11T08:54:00Z,25.0840,-81.0960,-1.0,22.45,2 
COMPS,ioos:station:USF.COMPS:NFB:1,2008-11-11T09:00:00Z,25.0840,-81.0960,-1.0,22.44,2 
COMPS,ioos:station:USF.COMPS:NFB:1,2008-11-11T09:06:00Z,25.0840,-81.0960,-1.0,22.44,2 
COMPS,ioos:station:USF.COMPS:NFB:1,2008-11-11T09:12:00Z,25.0840,-81.0960,-1.0,22.43,2 
COMPS,ioos:station:USF.COMPS:NFB:1,2008-11-11T09:18:00Z,25.0840,-81.0960,-1.0,22.42,2 
COMPS,ioos:station:USF.COMPS:NFB:1,2008-11-11T09:24:00Z,25.0840,-81.0960,-1.0,22.42,2 
COMPS,ioos:station:USF.COMPS:NFB:1,2008-11-11T09:30:00Z,25.0840,-81.0960,-1.0,22.43,2 
COMPS,ioos:station:USF.COMPS:NFB:1,2008-11-11T09:36:00Z,25.0840,-81.0960,-1.0,22.42,2 
COMPS,ioos:station:USF.COMPS:NFB:1,2008-11-11T09:42:00Z,25.0840,-81.0960,-1.0,22.42,2 
COMPS,ioos:station:USF.COMPS:NFB:1,2008-11-11T09:48:00Z,25.0840,-81.0960,-1.0,22.43,2 
COMPS,ioos:station:USF.COMPS:NFB:1,2008-11-11T09:54:00Z,25.0840,-81.0960,-1.0,22.44,2 
COMPS,ioos:station:USF.COMPS:NFB:1,2008-11-11T10:00:00Z,25.0840,-81.0960,-1.0,22.45,2 
COMPS,ioos:station:USF.COMPS:NFB:1,2008-11-11T10:06:00Z,25.0840,-81.0960,-1.0,22.46,2 
COMPS,ioos:station:USF.COMPS:NFB:1,2008-11-11T10:12:00Z,25.0840,-81.0960,-1.0,22.48,2 
COMPS,ioos:station:USF.COMPS:NFB:1,2008-11-11T10:18:00Z,25.0840,-81.0960,-1.0,22.48,2 
COMPS,ioos:station:USF.COMPS:NFB:1,2008-11-11T10:24:00Z,25.0840,-81.0960,-1.0,22.48,2 
COMPS,ioos:station:USF.COMPS:NFB:1,2008-11-11T10:30:00Z,25.0840,-81.0960,-1.0,22.49,2 
COMPS,ioos:station:USF.COMPS:NFB:1,2008-11-11T10:36:00Z,25.0840,-81.0960,-1.0,22.5,2 
COMPS,ioos:station:USF.COMPS:NFB:1,2008-11-11T10:42:00Z,25.0840,-81.0960,-1.0,22.51,2 
COMPS,ioos:station:USF.COMPS:NFB:1,2008-11-11T10:48:00Z,25.0840,-81.0960,-1.0,22.52,2 
COMPS,ioos:station:USF.COMPS:NFB:1,2008-11-11T10:54:00Z,25.0840,-81.0960,-1.0,22.53,2 
COMPS,ioos:station:USF.COMPS:NFB:1,2008-11-11T11:00:00Z,25.0840,-81.0960,-1.0,22.52,2 
COMPS,ioos:station:USF.COMPS:NFB:1,2008-11-11T11:06:00Z,25.0840,-81.0960,-1.0,22.51,2 
COMPS,ioos:station:USF.COMPS:NFB:1,2008-11-11T11:12:00Z,25.0840,-81.0960,-1.0,22.49,2 
COMPS,ioos:station:USF.COMPS:NFB:1,2008-11-11T11:18:00Z,25.0840,-81.0960,-1.0,22.47,2 
COMPS,ioos:station:USF.COMPS:NFB:1,2008-11-11T11:24:00Z,25.0840,-81.0960,-1.0,22.44,2 
COMPS,ioos:station:USF.COMPS:NFB:1,2008-11-11T11:30:00Z,25.0840,-81.0960,-1.0,22.42,2 
COMPS,ioos:station:USF.COMPS:NFB:1,2008-11-11T11:36:00Z,25.0840,-81.0960,-1.0,22.4,2 
COMPS,ioos:station:USF.COMPS:NFB:1,2008-11-11T11:42:00Z,25.0840,-81.0960,-1.0,22.39,2 
COMPS,ioos:station:USF.COMPS:NFB:1,2008-11-11T11:48:00Z,25.0840,-81.0960,-1.0,22.37,2 
COMPS,ioos:station:USF.COMPS:NFB:1,2008-11-11T11:54:00Z,25.0840,-81.0960,-1.0,22.36,2 
COMPS,ioos:station:USF.COMPS:NFB:1,2008-11-11T12:00:00Z,25.0840,-81.0960,-1.0,22.34,2 
COMPS,ioos:station:USF.COMPS:NFB:1,2008-11-11T12:06:00Z,25.0840,-81.0960,-1.0,22.33,2 
COMPS,ioos:station:USF.COMPS:NFB:1,2008-11-11T12:12:00Z,25.0840,-81.0960,-1.0,22.32,2 
COMPS,ioos:station:USF.COMPS:NFB:1,2008-11-11T12:18:00Z,25.0840,-81.0960,-1.0,22.32,2 
COMPS,ioos:station:USF.COMPS:NFB:1,2008-11-11T12:24:00Z,25.0840,-81.0960,-1.0,22.31,2 
COMPS,ioos:station:USF.COMPS:NFB:1,2008-11-11T12:30:00Z,25.0840,-81.0960,-1.0,22.32,2 
COMPS,ioos:station:USF.COMPS:NFB:1,2008-11-11T12:36:00Z,25.0840,-81.0960,-1.0,22.33,2 
COMPS,ioos:station:USF.COMPS:NFB:1,2008-11-11T12:42:00Z,25.0840,-81.0960,-1.0,22.33,2 
COMPS,ioos:station:USF.COMPS:NFB:1,2008-11-11T12:48:00Z,25.0840,-81.0960,-1.0,22.33,2 
COMPS,ioos:station:USF.COMPS:NFB:1,2008-11-11T12:54:00Z,25.0840,-81.0960,-1.0,22.32,2 
COMPS,ioos:station:USF.COMPS:NFB:1,2008-11-11T13:00:00Z,25.0840,-81.0960,-1.0,22.32,2 
COMPS,ioos:station:USF.COMPS:NFB:1,2008-11-11T13:06:00Z,25.0840,-81.0960,-1.0,22.31,2 
COMPS,ioos:station:USF.COMPS:NFB:1,2008-11-11T13:12:00Z,25.0840,-81.0960,-1.0,22.29,2 
COMPS,ioos:station:USF.COMPS:NFB:1,2008-11-11T13:18:00Z,25.0840,-81.0960,-1.0,22.32,2 
COMPS,ioos:station:USF.COMPS:NFB:1,2008-11-11T13:24:00Z,25.0840,-81.0960,-1.0,22.36,2 
COMPS,ioos:station:USF.COMPS:NFB:1,2008-11-11T13:30:00Z,25.0840,-81.0960,-1.0,22.37,2 
COMPS,ioos:station:USF.COMPS:NFB:1,2008-11-11T13:36:00Z,25.0840,-81.0960,-1.0,22.38,2 
COMPS,ioos:station:USF.COMPS:NFB:1,2008-11-11T13:42:00Z,25.0840,-81.0960,-1.0,22.37,2 
COMPS,ioos:station:USF.COMPS:NFB:1,2008-11-11T13:48:00Z,25.0840,-81.0960,-1.0,22.35,2 
COMPS,ioos:station:USF.COMPS:NFB:1,2008-11-11T13:54:00Z,25.0840,-81.0960,-1.0,22.34,2 
COMPS,ioos:station:USF.COMPS:NFB:1,2008-11-11T14:00:00Z,25.0840,-81.0960,-1.0,22.3,2 
COMPS,ioos:station:USF.COMPS:NFB:1,2008-11-11T14:06:00Z,25.0840,-81.0960,-1.0,22.3,2 
COMPS,ioos:station:USF.COMPS:NFB:1,2008-11-11T14:12:00Z,25.0840,-81.0960,-1.0,22.3,2 
COMPS,ioos:station:USF.COMPS:NFB:1,2008-11-11T14:18:00Z,25.0840,-81.0960,-1.0,22.31,2 
COMPS,ioos:station:USF.COMPS:NFB:1,2008-11-11T14:24:00Z,25.0840,-81.0960,-1.0,22.33,2 
COMPS,ioos:station:USF.COMPS:NFB:1,2008-11-11T14:30:00Z,25.0840,-81.0960,-1.0,22.34,2 
COMPS,ioos:station:USF.COMPS:NFB:1,2008-11-11T14:36:00Z,25.0840,-81.0960,-1.0,22.36,2 
COMPS,ioos:station:USF.COMPS:NFB:1,2008-11-11T14:42:00Z,25.0840,-81.0960,-1.0,22.37,2 
COMPS,ioos:station:USF.COMPS:NFB:1,2008-11-11T14:48:00Z,25.0840,-81.0960,-1.0,22.36,2 
COMPS,ioos:station:USF.COMPS:NFB:1,2008-11-11T14:54:00Z,25.0840,-81.0960,-1.0,22.38,2 
COMPS,ioos:station:USF.COMPS:NFB:1,2008-11-11T15:00:00Z,25.0840,-81.0960,-1.0,22.4,2 
COMPS,ioos:station:USF.COMPS:NFB:1,2008-11-11T15:06:00Z,25.0840,-81.0960,-1.0,22.41,2 
COMPS,ioos:station:USF.COMPS:NFB:1,2008-11-11T15:12:00Z,25.0840,-81.0960,-1.0,22.41,2 
COMPS,ioos:station:USF.COMPS:NFB:1,2008-11-11T15:18:00Z,25.0840,-81.0960,-1.0,22.41,2 
COMPS,ioos:station:USF.COMPS:NFB:1,2008-11-11T15:24:00Z,25.0840,-81.0960,-1.0,22.41,2 
COMPS,ioos:station:USF.COMPS:NFB:1,2008-11-11T15:30:00Z,25.0840,-81.0960,-1.0,22.43,2 
COMPS,ioos:station:USF.COMPS:NFB:1,2008-11-11T15:36:00Z,25.0840,-81.0960,-1.0,22.44,2 
COMPS,ioos:station:USF.COMPS:NFB:1,2008-11-11T15:42:00Z,25.0840,-81.0960,-1.0,22.45,2 
COMPS,ioos:station:USF.COMPS:NFB:1,2008-11-11T15:48:00Z,25.0840,-81.0960,-1.0,22.47,2 
COMPS,ioos:station:USF.COMPS:NFB:1,2008-11-11T15:54:00Z,25.0840,-81.0960,-1.0,22.48,2 
COMPS,ioos:station:USF.COMPS:NFB:1,2008-11-11T16:00:00Z,25.0840,-81.0960,-1.0,22.49,2 
COMPS,ioos:station:USF.COMPS:NFB:1,2008-11-11T16:06:00Z,25.0840,-81.0960,-1.0,22.5,2 
COMPS,ioos:station:USF.COMPS:NFB:1,2008-11-11T16:12:00Z,25.0840,-81.0960,-1.0,22.51,2 
COMPS,ioos:station:USF.COMPS:NFB:1,2008-11-11T16:18:00Z,25.0840,-81.0960,-1.0,22.51,2 
COMPS,ioos:station:USF.COMPS:NFB:1,2008-11-11T16:24:00Z,25.0840,-81.0960,-1.0,22.53,2 
COMPS,ioos:station:USF.COMPS:NFB:1,2008-11-11T16:30:00Z,25.0840,-81.0960,-1.0,22.52,2 
COMPS,ioos:station:USF.COMPS:NFB:1,2008-11-11T16:36:00Z,25.0840,-81.0960,-1.0,22.54,2 
COMPS,ioos:station:USF.COMPS:NFB:1,2008-11-11T16:42:00Z,25.0840,-81.0960,-1.0,22.55,2 
COMPS,ioos:station:USF.COMPS:NFB:1,2008-11-11T16:48:00Z,25.0840,-81.0960,-1.0,22.57,2 
COMPS,ioos:station:USF.COMPS:NFB:1,2008-11-11T16:54:00Z,25.0840,-81.0960,-1.0,22.56,2 
COMPS,ioos:station:USF.COMPS:NFB:1,2008-11-11T17:00:00Z,25.0840,-81.0960,-1.0,22.57,2 
COMPS,ioos:station:USF.COMPS:NFB:1,2008-11-11T17:06:00Z,25.0840,-81.0960,-1.0,22.59,2 
COMPS,ioos:station:USF.COMPS:NFB:1,2008-11-11T17:12:00Z,25.0840,-81.0960,-1.0,22.59,2 
COMPS,ioos:station:USF.COMPS:NFB:1,2008-11-11T17:18:00Z,25.0840,-81.0960,-1.0,22.62,2 
COMPS,ioos:station:USF.COMPS:NFB:1,2008-11-11T17:24:00Z,25.0840,-81.0960,-1.0,22.62,2 
COMPS,ioos:station:USF.COMPS:NFB:1,2008-11-11T17:30:00Z,25.0840,-81.0960,-1.0,22.62,2 
COMPS,ioos:station:USF.COMPS:NFB:1,2008-11-11T17:36:00Z,25.0840,-81.0960,-1.0,22.63,2 
COMPS,ioos:station:USF.COMPS:NFB:1,2008-11-11T17:42:00Z,25.0840,-81.0960,-1.0,22.64,2 
COMPS,ioos:station:USF.COMPS:NFB:1,2008-11-11T17:48:00Z,25.0840,-81.0960,-1.0,22.64,2 
COMPS,ioos:station:USF.COMPS:NFB:1,2008-11-11T17:54:00Z,25.0840,-81.0960,-1.0,22.67,2 
COMPS,ioos:station:USF.COMPS:NFB:1,2008-11-11T18:00:00Z,25.0840,-81.0960,-1.0,22.67,2 
COMPS,ioos:station:USF.COMPS:NFB:1,2008-11-11T18:06:00Z,25.0840,-81.0960,-1.0,22.68,2 
COMPS,ioos:station:USF.COMPS:NFB:1,2008-11-11T18:12:00Z,25.0840,-81.0960,-1.0,22.69,2 
COMPS,ioos:station:USF.COMPS:NFB:1,2008-11-11T18:18:00Z,25.0840,-81.0960,-1.0,22.69,2 
COMPS,ioos:station:USF.COMPS:NFB:1,2008-11-11T18:24:00Z,25.0840,-81.0960,-1.0,22.69,2 
COMPS,ioos:station:USF.COMPS:NFB:1,2008-11-11T18:30:00Z,25.0840,-81.0960,-1.0,22.71,2 